Location: ???
(60.6398°N, 46.9067°E)
Time: 18:49:45
(UTC+00:00)

NOSS 0 Rocket - Pass Details

Date: 08 December 2019
Orbit: 934 x 956 km, 70.0° (Epoch: 17 January)

Event Time Altitude Azimuth Distance (km) Brightness Sun altitude
Rises 16:01:04 0° 224° (SW) 3,615 7.5 -29.1°
Reaches altitude 10° 16:03:35 10° 225° (SW) 2,675 6.7 -29.4°
Enters shadow 16:09:49 84° 308° (NW) 968 3.9 -30.1°
